Weather observations for the past three days for
Hoquiam, Bowerman Airport
Imperial (Metric)
Date Time (pdt) Wind (mph) Vis. (mi.) Weather Sky Cond. Temperature (ºF) Relative Humidity Wind Chill (°F) Heat Index (°F) Pressure Precipitation (in)
Air Dwpt 6 hour altimeter (in) sea level (mb) 1 hr 3 hr 6 hr
Max. Min.
20 11:53 SW 9 10.00 Fair CLR 64 60.1 87% 30.16 1021.6
20 10:53 SW 7 10.00 Partly Cloudy SCT005 62.1 57.9 62.1 52 86% 30.17 1022.0
20 09:53 SW 6 10.00 Overcast OVC005 57.9 57 97% 30.17 1022.1
20 08:53 S 3 10.00 Overcast OVC005 57 55.9 96% 30.18 1022.1
20 07:53 W 3 10.00 Overcast OVC006 55.9 54 93% 30.17 1022.1
20 06:53 N 3 10.00 Mostly Cloudy BKN003 53.1 52 96% 30.16 1021.7
20 05:53 Calm 10.00 Fair CLR 52 52 100% 30.17 1021.9
20 04:53 Calm 10.00 Mostly Cloudy BKN003 52 52 57 52 100% 30.17 1022.0
20 03:53 N 5 1.00 Fog/Mist VV002 54 54 100% 30.17 1022.1
20 02:53 W 7 0.50 Fog VV002 55 55 100% 30.17 1022.0
20 01:53 Calm 10.00 Overcast OVC004 57 55.9 96% 30.17 1022.1
20 00:53 W 5 10.00 Overcast OVC004 57 55.9 96% 30.18 1022.2
19 23:53 W 6 10.00 Overcast OVC004 57 55.9 96% 30.18 1022.2
19 22:53 W 7 10.00 Overcast OVC005 57 55.9 66.9 57 96% 30.18 1022.3
19 21:53 W 8 10.00 Fair CLR 57.9 55.9 93% 30.18 1022.3
19 20:53 W 8 10.00 Fair CLR 60.1 57 90% 30.17 1021.8
19 19:53 W 8 10.00 Fair CLR 64 57.9 81% 30.17 1021.8
19 18:53 W 12 10.00 Fair CLR 66 57.9 75% 30.17 1022.0
19 17:53 W 14 10.00 Fair CLR 64.9 59 81% 30.18 1022.4
19 16:53 W 15 10.00 Fair CLR 64.9 57.9 66 61 78% 30.19 1022.7
19 15:53 W 14 10.00 Fair CLR 66 59 78% 30.2 1023.0
19 14:53 W 13 10.00 Fair CLR 66 59 78% 30.21 1023.2
19 13:53 W 13 10.00 Fair CLR 64.9 57.9 78% 30.22 1023.6
19 12:53 W 13 10.00 Fair CLR 64 57.9 81% 30.22 1023.7
19 11:53 W 5 10.00 Partly Cloudy SCT011 64.9 57.9 78% 30.22 1023.7
19 10:53 W 3 10.00 Overcast OVC012 61 57 62.1 57 87% 30.22 1023.7
19 09:53 Calm 10.00 Overcast OVC009 61 57 87% 30.22 1023.7
19 08:53 W 3 10.00 Overcast OVC009 59 57 93% 30.22 1023.7
19 07:53 SW 5 10.00 Overcast SCT008 OVC016 59 57 93% 30.21 1023.3
19 06:53 SW 6 1.75 Fog/Mist SCT006 OVC011 57.9 57.9 100% 30.19 1022.7
19 05:53 S 6 1.75 Fog/Mist SCT007 OVC011 57 57 100% 30.18 1022.3
19 04:53 S 6 10.00 Overcast OVC008 57.9 57 60.1 57.9 97% 30.17 1022.0
19 03:53 S 7 6.00 Fog/Mist BKN005 OVC010 57.9 57 97% 30.17 1021.9
19 02:53 W 3 10.00 Overcast BKN010 OVC016 59 57.9 96% 30.17 1021.8
19 01:53 W 9 10.00 Overcast OVC010 59 57 93% 30.16 1021.8
19 00:53 W 8 10.00 Overcast OVC011 59 57 93% 30.16 1021.6
18 23:53 W 3 10.00 Overcast BKN006 OVC016 59 57 93% 30.15 1021.4
18 22:53 W 5 10.00 Overcast SCT009 OVC018 59 57 64.9 57.9 93% 30.15 1021.2
18 21:53 W 6 10.00 Overcast OVC015 57.9 57 97% 30.14 1021.1
18 20:53 W 7 10.00 Partly Cloudy FEW003 SCT016 57.9 57 97% 30.13 1020.7
18 19:53 W 8 10.00 Fair CLR 61 57 87% 30.12 1020.2
18 18:53 W 10 10.00 Fair CLR 62.1 55.9 80% 30.12 1020.2
18 17:53 W 10 10.00 Fair CLR 64.9 55.9 73% 30.12 1020.4
18 16:53 W 13 10.00 Fair CLR 64 55.9 64 59 75% 30.13 1020.6
18 15:53 W 13 10.00 Fair CLR 63 55.9 78% 30.13 1020.7
18 14:53 W 14 10.00 Fair CLR 62.1 55 78% 30.13 1020.6
18 13:53 W 12 10.00 A Few Clouds FEW022 63 54 73% 30.14 1020.8
18 12:53 W 12 10.00 Overcast OVC019 63 55 76% 30.13 1020.8
18 11:53 W 8 10.00 Overcast OVC017 61 54 78% 30.13 1020.7
18 10:53 SW 5 10.00 Overcast OVC015 59 54 59 55.9 83% 30.13 1020.6
18 09:53 S 8 10.00 Overcast OVC013 57.9 53.1 84% 30.13 1020.6
18 08:53 S 6 10.00 Overcast OVC012 57 53.1 87% 30.13 1020.6
18 07:53 SW 5 10.00 Overcast OVC011 57 54 90% 30.12 1020.3
18 06:53 S 3 10.00 Overcast OVC008 55.9 54 93% 30.11 1020.0
18 05:53 S 9 10.00 Overcast OVC009 55.9 54 93% 30.1 1019.7
18 04:53 SW 6 10.00 Overcast OVC011 55.9 53.1 59 55.9 90% 30.1 1019.6
18 03:53 SW 9 10.00 Overcast OVC010 55.9 53.1 90% 30.1 1019.5
18 02:53 SW 7 10.00 Overcast OVC011 55.9 53.1 90% 30.09 1019.4
18 01:53 SW 8 10.00 Overcast OVC012 57 53.1 87% 30.1 1019.5
18 00:53 S 9 10.00 Overcast OVC012 57 54 90% 30.1 1019.5
17 23:53 S 8 10.00 Overcast BKN010 OVC014 57.9 55 90% 30.09 1019.3
17 22:53 SW 6 10.00 Overcast OVC013 57.9 54 64.9 57.9 87% 30.09 1019.2
17 21:53 SW 7 10.00 Overcast OVC012 59 55 87% 30.09 1019.3
17 20:53 W 9 10.00 Overcast OVC011 59 55.9 90% 30.08 1018.9
17 19:53 SW 12 9.00 Overcast OVC012 60.1 57 90% 30.08 1019.0
17 18:53 W 12 10.00 Overcast OVC014 61 55.9 84% 30.08 1018.9
17 17:53 W 15 10.00 Overcast OVC014 62.1 55.9 80% 30.08 1018.8
17 16:53 W 17 10.00 Mostly Cloudy BKN018 64 57 64 60.1 78% 30.08 1018.8
17 15:53 W 13 10.00 Overcast OVC015 63 57 81% 30.07 1018.6
17 14:53 SW 13 10.00 Overcast OVC017 64 57 78% 30.07 1018.7
17 13:53 SW 14 10.00 Overcast OVC014 63 57 81% 30.07 1018.5
17 12:53 W 16 10.00 Overcast OVC015 62.1 57 84% 30.06 1018.2
Date Time (pdt) Wind (mph) Vis. (mi.) Weather Sky Cond. Air Dwpt Max. Min. Relative Humidity Wind Chill (°F) Heat Index (°F) altimeter (in) sea level (mb) 1 hr 3 hr 6 hr
6 hour
Temperature (ºF) Pressure Precipitation (in)